Location: Calmejanne
(44.7523°N, 1.9418°E)
Time: 05:14:41
(UTC+00:00)

Cosmos 1933 - Pass Details

Date: 14 May 2026
Orbit: 508 x 512 km, 82.5° (Epoch: 6 June)

Event Time Altitude Azimuth Distance (km) Brightness Sun altitude
Exits shadow 21:36:27 21° 221° (SW) 1,188 4.8 -19.7°
Maximum altitude 21:38:37 43° 282° (WNW) 730 4.2 -19.9°
Drops below altitude 10° 21:42:17 10° 356° (N) 1,743 6.8 -20.2°
Sets 21:44:30 0° 3° (N) 2,636 7.7 -20.4°
